Regional Weather Roundup
Issued by NWS

Home | Current Version | Previous Version | Graphics & Text | Print | Product List | Glossary On
Versions: 1 2 3 4 5 6 7 8 9 10 11 12 13 14 15 16 17 18 19 20 21 22 23 24 25 26 27 28 29 30 31 32 33 34 35 36 37 38 39 40 41 42 43 44 45 46 47 48 49 50
000
ASUS43 KLMK 242210
RWRKY
KENTUCKY REGIONAL WEATHER ROUNDUP
NATIONAL WEATHER SERVICE LOUISVILLE KY
600 PM EDT FRI APR 24 2015

NOTE "FAIR" INDICATES FEW OR NO CLOUDS BELOW 12,000 FEET
WITH NO SIGNIFICANT WEATHER AND/OR OBSTRUCTIONS TO VISIBILITY.

KYZ001>023-026-027-061>063-070>075-242300-
WESTERN AND SOUTH CENTRAL KENTUCKY

CITY           SKY/WX    TMP DP  RH WIND       PRES   REMARKS
PADUCAH        CLOUDY    57  43  59 SE6       29.95F
HENDERSON      CLOUDY    63  30  29 S10       29.95S
OWENSBORO      CLOUDY    64  34  32 S10       29.96R
HOPKINSVILLE   CLOUDY    61  39  44 S5        29.96R
BOWLING GREEN  PTSUNNY   63  34  33 E6        29.98S
GLASGOW        CLOUDY    63  33  32 CALM      29.98R
$$

KYZ024-025-028>034-038-045-046-053-242300-
NORTH CENTRAL KENTUCKY

CITY           SKY/WX    TMP DP  RH WIND       PRES   REMARKS
LOUISVILLE/SDF CLOUDY    64  27  24 SE8       29.97F
LOUISVILLE/LOU PTSUNNY   63  26  24 S7        29.98F
FORT KNOX      CLOUDY    64  25  22 E6        29.94F
$$

KYZ035>037-039>044-047>052-055>060-089>105-242300-
NORTHEAST KENTUCKY

CITY           SKY/WX    TMP DP  RH WIND       PRES   REMARKS
LEXINGTON      PTSUNNY   60  26  27 CALM      30.01S
COVINGTON      CLOUDY    61  29  29 S5        29.98F
FRANKFORT      PTSUNNY   60  28  29 S7        29.99S
$$

KYZ054-064>069-076>088-106>120-242300-
SOUTHEAST KENTUCKY

CITY           SKY/WX    TMP DP  RH WIND       PRES   REMARKS
JACKSON        PTSUNNY   63  21  20 VRB3      29.99F
LONDON         PTSUNNY   65  17  15 W5        29.99F
SOMERSET       PTSUNNY   63  28  27 NE3       30.00S
MIDDLESBORO    PTSUNNY   67  29  23 S5        29.98S
MONTICELLO     CLOUDY    66  30  26 N6        30.01F
$$




USA.gov is the U.S. government's official web portal to all federal, state and local government web resources and services.